EW8163 Weather Reports


Display with metric or nautical units.
time (UTC)temp
F
wind
direction
speed
MPH
gust
MPH
rain 1hr
in
rain 24hr
in
rain mn
in
humidity
%
barometer
mb
20260505223523 43 157 0.0 0.0 0.01 0.09 0.09 87 1016.0
20260505222523 43 360 0.0 0.0 0.01 0.09 0.09 87 1016.1
20260505221622 43 180 0.0 1.0 0.01 0.09 0.09 87 1016.0
20260505221524 43 180 0.0 2.0 0.01 0.09 0.09 87 1016.1
20260505214525 44 273 2.0 4.0 0.01 0.08 0.08 88 1016.0
20260505212523 45 90 0.0 0.0 0.01 0.08 0.08 89 1016.2
20260505211525 45 112 0.0 1.0 0.01 0.08 0.08 88 1016.0
20260505210524 45 149 0.0 2.0 0.01 0.08 0.08 87 1015.9
20260505204623 45 156 1.0 4.0 0.00 0.07 0.07 86 1015.8
20260505203624 46 134 0.0 2.0 0.00 0.07 0.07 84 1015.6
20260505202623 47 349 3.0 6.0 0.00 0.07 0.07 77 1015.7
20260505202523 47 249 0.0 4.0 0.00 0.07 0.07 77 1015.7
20260505201523 47 157 0.0 1.0 0.00 0.07 0.07 76 1015.6
20260505200524 47 240 2.0 5.0 0.00 0.07 0.07 76 1015.6
20260505195525 46 184 2.0 4.0 0.00 0.07 0.07 80 1015.7
20260505194622 47 112 0.0 0.0 0.00 0.07 0.07 78 1015.7
20260505193626 48 130 2.0 5.0 0.00 0.07 0.07 79 1015.6
20260505192624 48 2 2.0 4.0 0.00 0.07 0.07 75 1015.5
20260505191524 48 24 3.0 6.0 0.00 0.07 0.07 75 1015.5
20260505185525 46 183 2.0 5.0 0.00 0.07 0.07 75 1015.5
20260505185425 47 223 4.0 6.0 0.00 0.07 0.07 75 1015.5
20260505183523 47 311 3.0 5.0 0.00 0.07 0.07 78 1015.3
20260505183424 47 300 1.0 4.0 0.00 0.07 0.07 78 1015.4
20260505181439 45 270 0.0 1.0 0.01 0.07 0.07 81 1015.3
20260505181322 45 289 0.0 2.0 0.01 0.07 0.07 80 1015.3
20260505181222 45 270 0.0 1.0 0.01 0.07 0.07 81 1015.3
20260505180123 45 258 4.0 5.0 0.01 0.07 0.07 82 1015.3
20260505175124 44 247 1.0 2.0 0.01 0.07 0.07 82 1015.1
20260505174124 43 315 0.0 1.0 0.01 0.07 0.07 83 1015.0
20260505173222 43 239 1.0 4.0 0.01 0.07 0.07 84 1014.9
20260505172223 43 45 0.0 1.0 0.01 0.07 0.07 84 1015.0
20260505171222 42 315 0.0 0.0 0.00 0.06 0.06 85 1014.8
20260505170225 42 90 0.0 0.0 0.00 0.06 0.06 84 1014.7
20260505170122 42 90 0.0 1.0 0.00 0.06 0.06 84 1014.7
20260505165124 42 148 1.0 3.0 0.00 0.06 0.06 86 1014.6
20260505162222 41 175 0.0 6.0 0.01 0.06 0.06 86 1014.4
20260505162122 41 183 1.0 6.0 0.01 0.06 0.06 87 1014.4
20260505161125 41 22 0.0 0.0 0.01 0.06 0.06 88 1014.3
20260505152322 41 67 0.0 0.0 0.01 0.06 0.05 91 1013.9
20260505151324 40 67 0.0 0.0 0.01 0.06 0.05 90 1013.9
20260505151240 40 67 0.0 0.0 0.01 0.06 0.05 89 1013.9
20260505150224 40 1 0.0 1.0 0.01 0.06 0.05 92 1013.8
20260505140424 39 112 0.0 0.0 0.01 0.05 0.04 94 1013.4
20260505130225 39 270 0.0 1.0 0.01 0.04 0.03 95 1013.0
20260505121422 40 45 0.0 0.0 0.02 0.03 0.02 96 1013.0
20260505120424 40 45 0.0 0.0 0.02 0.03 0.02 94 1013.0
20260505115425 40 45 0.0 0.0 0.01 0.02 0.01 94 1013.0
20260505112423 40 360 0.0 0.0 0.00 0.01 0.00 95 1012.9
20260505111326 40 360 0.0 0.0 0.00 0.01 0.00 93 1013.0
20260505110424 40 360 0.0 0.0 0.00 0.01 0.00 93 1012.8
20260505094424 40 360 0.0 0.0 0.00 0.01 0.00 93 1013.2
20260505093424 40 360 0.0 0.0 0.00 0.01 0.00 93 1013.3
20260505092423 40 360 0.0 1.0 0.00 0.01 0.00 93 1013.5
20260505092322 40 360 0.0 0.0 0.00 0.01 0.00 93 1013.6
20260505091421 41 360 0.0 0.0 0.00 0.01 0.00 94 1013.6
20260505090424 41 112 0.0 0.0 0.00 0.01 0.00 93 1013.6
20260505090324 41 112 0.0 0.0 0.00 0.01 0.00 93 1013.6
20260505085323 41 112 0.0 0.0 0.00 0.01 0.00 94 1013.6
20260505084323 41 112 0.0 0.0 0.00 0.01 0.00 93 1013.6
20260505083323 41 112 0.0 0.0 0.00 0.01 0.00 92 1013.6
20260505083224 41 112 0.0 0.0 0.00 0.01 0.00 92 1013.7
20260505082322 41 112 0.0 0.0 0.00 0.01 0.00 92 1013.8
20260505082224 41 112 0.0 0.0 0.00 0.01 0.00 93 1013.8
20260505081223 41 112 0.0 0.0 0.00 0.01 0.00 91 1013.9
20260505075223 41 112 0.0 0.0 0.00 0.01 0.00 91 1014.0
20260505074222 41 112 0.0 0.0 0.00 0.01 0.00 92 1014.1
20260505070323 41 180 0.0 0.0 0.00 0.01 0.00 92 1014.0
20260505070224 41 180 0.0 0.0 0.00 0.01 0.00 93 1014.0
20260505064305 41 180 0.0 0.0 0.00 0.01 0.01 92 1014.0
20260505063307 41 180 0.0 0.0 0.00 0.01 0.01 93 1014.1
20260505062306 41 180 0.0 0.0 0.00 0.01 0.01 92 1014.0
20260505061307 41 180 0.0 0.0 0.00 0.01 0.01 93 1014.2
20260505060406 41 180 0.0 0.0 0.00 0.01 0.01 92 1014.2
20260505055406 41 180 0.0 0.0 0.00 0.01 0.01 92 1014.2
20260505055307 41 180 0.0 0.0 0.00 0.01 0.01 93 1014.3
20260505052406 41 180 0.0 0.0 0.00 0.01 0.01 92 1014.2
20260505051406 41 180 0.0 0.0 0.00 0.01 0.01 92 1014.3
20260505051309 41 180 0.0 0.0 0.00 0.01 0.01 92 1014.3
20260505041207 42 180 0.0 0.0 0.00 0.01 0.01 88 1014.4
20260505035206 42 180 0.0 0.0 0.00 0.01 0.01 88 1014.4
20260505035107 42 180 0.0 0.0 0.00 0.01 0.01 88 1014.4
20260505034107 42 180 0.0 0.0 0.00 0.01 0.01 86 1014.4
20260505032108 42 255 0.0 0.0 0.00 0.01 0.01 85 1014.2
20260505031108 42 270 0.0 1.0 0.00 0.01 0.01 86 1014.3
20260505031007 42 263 0.0 2.0 0.00 0.01 0.01 87 1014.1
20260505030006 41 315 0.0 0.0 0.00 0.01 0.01 90 1014.1
20260505025006 41 360 0.0 0.0 0.00 0.01 0.01 92 1014.0
20260505024006 42 360 0.0 0.0 0.00 0.01 0.01 90 1013.8
20260505023907 42 360 0.0 0.0 0.00 0.01 0.01 91 1013.8
20260505022906 42 360 0.0 0.0 0.00 0.01 0.01 91 1013.8
20260505021907 42 360 0.0 0.0 0.00 0.01 0.01 91 1013.9
20260505020905 42 360 0.0 2.0 0.00 0.01 0.01 91 1014.0
20260505015907 43 148 1.0 2.0 0.00 0.01 0.01 89 1014.1
20260505014005 43 270 0.0 0.0 0.00 0.01 0.01 87 1014.2
20260505013007 43 270 0.0 2.0 0.00 0.01 0.01 89 1014.4
20260505012105 43 86 0.0 2.0 0.00 0.01 0.01 90 1014.4
20260505011105 42 315 0.0 0.0 0.00 0.01 0.01 91 1014.5
20260505010106 42 360 0.0 2.0 0.00 0.01 0.01 92 1014.4
20260505010006 42 360 0.0 0.0 0.00 0.01 0.01 92 1014.4
20260505005104 42 360 0.0 1.0 0.00 0.01 0.01 93 1014.6
20260505004107 42 360 0.0 1.0 0.00 0.01 0.01 93 1014.6
20260505002108 42 90 1.0 3.0 0.00 0.01 0.01 91 1014.7
20260505001105 42 112 1.0 3.0 0.00 0.01 0.01 92 1014.5
20260505000107 43 360 0.0 0.0 0.00 0.01 0.01 92 1014.6
20260504235106 42 353 0.0 1.0 0.00 0.01 0.01 93 1014.4
20260504234106 42 90 0.0 0.0 0.00 0.01 0.01 94 1014.4
20260504233106 42 103 0.0 1.0 0.00 0.01 0.01 93 1014.5
20260504231204 42 90 0.0 0.0 0.00 0.01 0.01 93 1014.6
20260504230304 42 360 0.0 2.0 0.00 0.01 0.01 92 1014.7
20260504230207 42 360 0.0 1.0 0.00 0.01 0.01 92 1014.7
20260504225204 42 351 0.0 3.0 0.00 0.01 0.01 91 1014.7
20260504224207 42 67 0.0 0.0 0.00 0.01 0.01 91 1014.8